Location: CNYAC Observatory
(43.2150°N, 74.9500°W)
Time: 09:39:25
(UTC-04:00)

Cosmos 1975 Rocket - Visible Passes

Search period start: 01 September 2014 00:00
Search period end: 11 September 2014 00:00
Orbit: 606 x 635 km, 82.5° (Epoch: 30 August)

Date Brightness Start Highest point End Pass type
(mag) Time Alt. Az. Time Alt. Az. Time Alt. Az.
01 Sep 3.1 03:55:06 81° E 03:55:06 81° E 03:59:37 10° N visible
01 Sep 5.2 05:32:54 10° WNW 05:33:38 10° WNW 05:34:21 10° NW visible
02 Sep 5.8 02:36:04 14° ENE 02:36:04 14° ENE 02:38:01 10° NE visible
02 Sep 3.3 04:13:17 53° WNW 04:13:17 53° WNW 04:17:25 10° N visible
03 Sep 5.2 02:54:13 24° ENE 02:54:13 24° ENE 02:56:57 10° NNE visible
03 Sep 4.2 04:31:25 29° WNW 04:31:25 29° WNW 04:34:58 10° NNW visible
04 Sep 4.6 03:12:20 35° NE 03:12:20 35° NE 03:15:17 10° NNE visible
04 Sep 4.9 04:49:32 17° WNW 04:49:32 17° WNW 04:52:04 10° NNW visible
05 Sep 4.3 03:30:26 39° N 03:30:26 39° N 03:33:18 10° N visible
06 Sep 6.1 02:11:18 12° NE 02:11:18 12° NE 02:11:56 10° NE visible
06 Sep 4.5 03:48:30 30° NNW 03:48:30 30° NNW 03:51:04 10° N visible
07 Sep 5.7 02:29:21 17° NE 02:29:21 17° NE 02:30:43 10° NNE visible
07 Sep 4.9 04:06:33 20° NW 04:06:33 20° NW 04:08:33 10° NNW visible
08 Sep 5.5 02:47:24 21° NNE 02:47:24 21° NNE 02:48:59 10° NNE visible
08 Sep 5.4 04:24:36 13° NW 04:24:36 13° NW 04:25:32 10° NNW visible
09 Sep 5.3 03:05:25 21° N 03:05:25 21° N 03:06:58 10° N visible
10 Sep 5.4 03:23:25 18° NNW 03:23:25 18° NNW 03:24:41 10° N visible
